Temperature
13 13 14 14 14 15 15 15 15 15 15 15 14 14 14 14 14 14 14 14 14 14 14 15 15 15 16 16 16 17 17 17 16 16 16 16 16 16
13 13 14 14 14 14 14 15 15 14 14 14 13 13 13 13 13 13 13 13 13 13 14 14 14 14 15 15 15 15 16 16 16 15 15 15 15 15
13 13 13 13 14 14 14 14 14 14 13 13 13 12 12 12 12 12 12 12 12 13 13 13 13 13 14 14 14 14 14 14 14 14 14 14 14 15
12 12 13 13 13 13 13 14 14 13 13 12 12 12 12 12 12 12 12 12 12 12 12 12 13 13 13 13 13 13 14 14 14 14 14 14 14 14
12 12 12 13 13 13 13 13 13 12 12 12 11 11 11 11 11 11 11 11 11 12 12 12 12 12 12 12 12 13 13 13 13 13 13 13 13 13
12 12 12 12 12 12 12 12 12 12 11 11 11 11 11 11 11 11 11 11 11 11 11 11 11 11 12 12 12 12 12 12 13 13 13 13 13 13
11 11 11 11 11 11 11 11 11 11 11 11 11 11 11 11 11 11 11 10 10 10 11 10 10 11 11 11 12 12 12 12 12 12 12 13 13 13
11 11 11 11 11 11 11 11 11 11 11 11 11 11 11 11 11 11 11 11 11 10 11 10 10 10 10 11 11 11 11 11 12 12 12 12 12 12
11 11 11 10 10 11 11 11 10 10 11 11 11 11 11 11 11 11 11 11 11 10 11 10 10 9 9 10 10 10 10 11 11 11 11 11 12 12
11 11 11 10 10 10 10 10 10 10 10 10 10 10 10 10 11 11 11 11 10 10 11 11 10 9 9 9 9 9 10 10 10 10 11 11 11 11
10 10 10 10 10 10 10 10 10 10 10 11 11 10 10 10 10 11 11 11 11 10 11 11 10 10 10 9 9 9 9 9 9 9 10 10 10 10
10 10 10 10 10 10 10 10 10 10 10 10 10 10 10 10 10 11 12 12 11 10 10 11 11 11 10 9 9 8 8 8 8 8 8 9 9 9
11 10 10 10 10 10 10 10 10 10 10 10 9 9 9 9 10 10 10 11 11 10 10 10 10 11 11 10 9 9 8 8 8 8 8 8 8 8
11 11 10 10 10 10 10 10 10 10 10 10 10 10 10 9 9 9 9 9 9 8 8 9 9 10 10 10 9 9 8 8 8 8 7 7 7 7
11 11 11 10 10 10 10 10 10 10 11 11 10 10 9 9 8 8 8 8 8 8 8 8 9 9 9 9 9 9 8 8 7 7 7 7 7 6
10 10 10 10 10 10 10 10 10 10 11 10 10 9 9 9 9 9 9 9 8 8 7 7 7 8 9 8 9 8 8 8 7 7 7 7 7 6
10 10 10 10 10 9 10 10 10 10 10 10 9 9 9 9 9 9 9 10 10 9 8 8 7 7 8 8 8 8 8 8 7 7 7 7 7 6
10 10 10 11 11 10 10 10 10 10 10 10 10 10 10 9 9 9 10 10 10 9 9 9 9 9 8 7 7 7 7 7 7 7 7 7 7 6
11 11 11 11 11 11 11 11 10 10 10 10 10 10 10 10 10 10 10 10 10 9 9 9 9 9 10 10 7 7 6 6 7 7 7 7 7 6
11 11 11 11 11 11 11 11 10 9 10 10 10 10 10 10 10 10 10 9 10 9 9 9 8 8 8 8 8 7 6 6 6 6 6 7 7 6
12 12 11 11 11 11 11 11 10 10 10 10 10 9 10 10 10 10 9 8 9 9 9 8 7 7 7 8 9 8 7 6 5 5 5 6 6 6
12 12 12 11 11 11 11 11 10 10 9 10 10 10 10 10 10 10 9 9 9 9 9 8 7 7 8 8 9 8 8 7 6 6 5 5 5 5
12 12 12 11 11 11 11 11 10 10 10 10 10 10 10 10 10 10 9 10 9 9 9 9 8 8 8 8 8 8 7 7 7 7 6 5 5 5
Wind_Speed
14 15 14 13 13 12 12 11 11 9 7 3 2 1 2 3 5 6 8 12 13 15 16 16 17 16 15 14 12 10 8 7 7 8 9 11 13 16
11 12 12 11 10 10 10 10 10 8 4 1 2 3 4 6 8 10 12 15 16 17 18 19 19 20 19 18 17 17 16 15 14 13 10 7 5 4
10 9 9 9 7 6 6 5 5 6 5 3 4 4 6 7 7 8 10 10 13 18 19 20 20 20 20 19 18 18 18 17 15 14 13 11 9 7
8 7 6 5 5 4 3 3 3 4 7 9 5 4 6 7 8 9 8 10 12 18 20 21 21 20 20 19 18 18 17 16 15 13 12 11 9 7
6 5 4 3 2 2 3 5 6 7 8 10 7 4 5 6 8 9 10 9 11 15 19 20 20 20 19 18 17 17 16 15 14 12 11 9 8 6
4 4 4 4 5 6 7 8 9 10 10 9 9 7 6 7 7 8 9 8 9 10 12 14 17 18 18 17 16 16 15 14 13 12 10 9 7 6
5 6 7 10 10 8 8 8 8 8 8 8 9 8 7 7 7 8 10 10 9 8 9 9 9 10 12 15 16 15 14 14 13 12 11 10 8 7
5 7 8 11 14 14 14 12 8 8 8 7 8 9 9 8 7 8 9 9 8 6 8 9 8 10 10 12 13 14 15 14 14 13 12 12 10 9
5 6 8 9 9 10 13 13 12 10 7 7 9 9 10 9 8 8 7 8 8 6 7 9 8 10 10 12 13 14 14 14 14 14 14 14 14 12
6 8 9 9 8 9 12 12 11 10 8 9 10 10 10 8 9 10 11 11 9 6 5 8 8 8 9 10 11 12 12 12 12 13 15 17 18 15
8 8 9 10 9 9 12 13 12 11 14 16 14 13 13 10 4 7 8 9 9 7 5 6 7 7 7 7 8 9 9 8 9 11 14 18 21 16
8 8 9 11 10 8 12 13 13 12 12 12 11 11 11 9 7 5 5 7 9 8 5 3 5 5 6 6 6 5 5 5 6 8 11 14 18 12
10 9 9 10 9 5 8 11 12 12 11 11 11 10 10 8 9 9 8 7 7 8 5 4 5 4 4 5 5 6 6 7 6 5 8 10 11 11
10 10 10 12 9 5 7 12 11 9 9 9 9 9 9 9 10 11 11 11 11 10 7 6 6 5 5 5 5 5 6 7 7 7 7 5 6 6
8 12 15 15 13 9 13 13 10 7 8 8 9 9 9 10 10 10 11 10 10 10 9 7 6 5 6 6 6 6 6 7 8 8 7 7 8 9
12 14 14 11 9 12 12 10 7 7 7 8 9 9 9 8 8 8 8 8 9 9 8 8 7 6 6 6 6 6 7 7 8 9 8 6 7 9
15 13 13 12 12 12 11 9 8 8 8 9 9 9 9 8 7 6 6 6 7 7 7 6 6 6 8 8 7 7 7 7 7 8 8 7 7 8
17 14 14 13 13 12 11 11 10 9 9 9 9 9 9 8 8 7 6 6 6 6 6 4 3 5 7 7 7 8 7 8 7 7 7 8 8 9
14 14 13 12 12 12 11 11 10 10 9 9 9 9 8 8 7 7 6 6 6 6 5 4 4 4 3 4 5 5 7 7 8 8 8 8 8 8
13 13 13 12 12 11 11 11 11 11 9 9 9 8 8 8 7 7 6 6 6 6 5 5 5 5 5 4 4 4 5 7 8 8 9 8 7 5
13 13 13 12 12 11 11 11 11 11 10 9 9 8 8 8 7 7 7 4 3 5 5 5 4 2 3 2 2 4 4 4 1 4 8 9 10 9
13 13 13 13 12 11 11 11 11 11 11 9 9 8 8 7 8 8 8 7 5 5 5 5 4 2 1 3 4 4 4 3 4 6 1 2 7 8
14 13 13 13 12 11 11 12 12 11 11 10 10 9 8 8 7 7 7 6 6 5 4 3 3 2 1 2 3 4 5 6 5 3 3 10 9 11
Wind_Direction
270 266 261 259 254 250 245 241 241 241 234 199 155 90 106 107 114 109 100 88 85 83 80 78 75 71 66 65 67 70 80 109 146 173 191 202 209 216
278 273 267 261 256 251 245 238 231 231 222 130 114 109 100 103 96 96 94 88 84 85 82 79 76 74 71 69 68 69 72 76 82 88 94 103 125 159
294 286 281 273 263 255 243 231 218 201 168 117 95 98 99 101 100 98 98 94 89 86 86 83 79 76 74 71 70 70 71 73 74 77 78 79 78 74
308 305 305 300 276 251 218 184 161 150 137 126 110 99 96 102 101 96 95 93 92 87 86 85 82 79 76 74 72 70 70 70 69 69 69 67 63 56
319 327 334 360 37 79 107 111 110 113 116 121 119 106 103 111 106 102 101 104 99 97 91 88 86 83 79 76 72 69 68 67 65 62 59 55 49 38
1 13 24 54 74 86 91 99 107 112 118 122 123 123 121 124 124 123 115 108 106 104 98 101 100 93 86 78 71 68 66 64 60 54 48 41 30 14
54 50 60 75 73 79 94 103 112 117 122 126 128 129 130 139 136 131 120 117 111 120 123 123 117 102 92 79 69 63 62 59 54 46 37 27 14 358
88 83 82 82 82 80 80 77 82 113 125 130 130 128 130 129 128 135 138 132 118 119 120 111 103 92 80 73 64 61 58 53 47 39 29 17 4 351
107 102 97 94 95 102 95 88 76 71 94 113 119 124 127 131 137 126 108 106 102 120 124 114 108 100 93 80 72 65 59 53 45 37 27 15 3 349
120 115 113 111 111 115 113 104 94 73 79 99 103 101 105 108 108 110 114 114 109 101 120 117 114 109 105 95 89 76 65 56 46 38 28 15 360 342
135 130 128 126 128 128 119 112 104 92 71 73 77 82 68 56 75 135 138 128 114 101 97 117 122 120 109 100 109 117 97 76 61 50 37 22 2 345
140 137 137 139 149 156 134 127 121 117 114 108 104 111 103 85 48 70 118 126 123 108 80 99 122 138 119 89 65 63 78 110 120 92 62 39 14 8
158 158 145 139 157 172 158 138 132 133 129 126 121 116 112 103 88 68 50 66 92 96 95 93 97 97 96 99 72 52 39 30 35 83 95 73 42 25
164 156 142 145 149 156 141 128 145 161 141 133 125 119 112 101 89 81 72 70 72 79 61 68 77 63 81 81 66 50 49 37 25 22 29 63 68 73
137 115 131 140 138 125 128 145 172 164 141 135 126 117 107 106 110 107 101 99 94 85 76 56 74 75 66 65 58 42 32 34 25 16 17 26 25 22
123 121 131 149 141 126 148 173 183 150 143 134 127 125 129 141 142 137 136 134 121 109 95 76 58 48 65 60 49 41 31 26 22 14 2 18 27 25
145 147 150 152 153 157 164 163 152 148 145 138 140 144 144 136 125 116 119 124 119 120 126 132 125 101 69 38 39 28 22 20 25 10 349 10 25 19
158 159 161 162 161 160 159 158 158 154 150 148 149 149 145 138 135 136 133 120 111 102 94 90 126 161 152 95 39 19 15 9 5 5 357 359 10 16
170 162 164 162 159 158 158 158 154 147 151 152 149 146 144 143 141 137 130 124 116 108 98 81 56 34 48 76 100 54 15 2 356 2 360 353 0 10
176 165 165 162 160 159 157 152 146 150 159 152 149 150 151 148 144 142 133 128 125 123 115 92 64 46 39 28 27 83 84 16 2 358 353 347 356 10
178 167 167 165 162 160 153 151 153 157 157 155 151 154 154 152 148 139 122 118 140 127 116 95 73 272 282 296 355 37 57 123 65 351 350 349 349 351
178 170 169 167 165 161 158 159 157 155 158 163 154 159 158 153 149 150 148 156 146 124 117 116 149 215 331 11 360 12 10 347 192 181 184 14 354 348
179 173 169 170 168 166 166 167 164 163 168 165 157 162 161 157 156 156 156 156 144 141 148 139 146 149 25 347 337 350 353 337 341 315 213 182 201 232
Height
1438 1436 1433 1432 1432 1432 1433 1434 1436 1437 1438 1439 1440 1442 1443 1444 1445 1447 1447 1448 1450 1450 1450 1451 1453 1455 1457 1460 1462 1465 1467 1470 1473 1476 1479 1483 1487 1490
1432 1429 1427 1425 1425 1425 1426 1427 1429 1432 1434 1435 1437 1439 1440 1442 1443 1445 1446 1447 1449 1449 1449 1450 1451 1453 1455 1457 1459 1462 1463 1465 1468 1471 1474 1477 1480 1484
1427 1424 1421 1420 1419 1419 1420 1422 1423 1426 1429 1432 1435 1437 1439 1441 1443 1444 1446 1447 1448 1450 1450 1451 1452 1453 1455 1457 1460 1461 1462 1464 1466 1468 1470 1473 1475 1478
1424 1421 1418 1416 1415 1415 1417 1418 1420 1423 1426 1429 1433 1436 1439 1441 1443 1445 1447 1449 1450 1451 1452 1452 1454 1455 1457 1459 1461 1461 1462 1463 1465 1467 1469 1470 1472 1474
1422 1419 1417 1415 1414 1414 1415 1416 1419 1422 1425 1428 1432 1436 1439 1442 1444 1447 1449 1451 1451 1453 1454 1455 1456 1458 1459 1461 1461 1462 1463 1464 1466 1467 1468 1469 1470 1472
1422 1419 1417 1415 1415 1415 1415 1417 1420 1423 1426 1430 1434 1438 1441 1444 1447 1449 1451 1453 1454 1456 1457 1458 1459 1461 1462 1462 1463 1463 1463 1465 1466 1466 1467 1468 1469 1470
1423 1421 1419 1418 1418 1418 1419 1421 1423 1426 1429 1433 1436 1440 1443 1446 1449 1452 1453 1455 1457 1459 1460 1461 1462 1463 1464 1464 1464 1464 1465 1466 1466 1466 1467 1467 1467 1467
1424 1423 1422 1421 1422 1423 1424 1426 1428 1431 1434 1436 1439 1442 1445 1448 1451 1454 1456 1457 1459 1462 1462 1464 1465 1465 1466 1465 1466 1466 1466 1466 1466 1466 1466 1465 1465 1464
1425 1425 1424 1425 1426 1427 1429 1431 1433 1436 1439 1440 1442 1445 1448 1450 1453 1455 1457 1458 1460 1463 1464 1465 1467 1467 1467 1467 1467 1467 1467 1466 1466 1465 1464 1464 1463 1462
1427 1427 1427 1428 1430 1432 1434 1436 1438 1440 1443 1444 1445 1448 1450 1453 1455 1456 1458 1459 1461 1463 1466 1467 1468 1469 1470 1469 1468 1468 1467 1466 1465 1464 1462 1461 1460 1458
1428 1430 1431 1432 1434 1436 1438 1440 1442 1444 1446 1447 1449 1450 1452 1454 1457 1460 1461 1462 1464 1465 1467 1468 1469 1470 1471 1471 1470 1468 1467 1466 1464 1462 1461 1459 1457 1456
1429 1431 1433 1435 1437 1439 1441 1443 1445 1448 1449 1451 1452 1454 1455 1457 1458 1460 1462 1463 1464 1466 1467 1469 1470 1471 1472 1472 1472 1471 1469 1467 1464 1462 1460 1458 1456 1454
1429 1432 1434 1436 1439 1442 1444 1446 1448 1450 1453 1454 1455 1457 1458 1459 1460 1460 1461 1463 1465 1466 1468 1469 1470 1471 1471 1473 1472 1471 1470 1468 1466 1463 1460 1457 1455 1452
1428 1431 1433 1437 1440 1443 1446 1448 1450 1452 1455 1456 1458 1459 1461 1461 1462 1462 1462 1463 1464 1466 1468 1470 1471 1471 1472 1472 1473 1472 1470 1468 1466 1464 1461 1458 1455 1451
1427 1429 1433 1437 1441 1444 1446 1449 1451 1454 1456 1457 1459 1461 1462 1463 1464 1464 1465 1466 1467 1469 1470 1470 1472 1472 1472 1473 1472 1471 1470 1468 1466 1463 1461 1458 1455 1452
1424 1428 1433 1437 1441 1444 1446 1450 1453 1455 1456 1458 1460 1461 1463 1465 1467 1468 1469 1470 1471 1471 1471 1471 1471 1472 1473 1473 1472 1471 1470 1468 1466 1463 1461 1459 1456 1452
1423 1428 1433 1437 1441 1444 1447 1450 1452 1454 1456 1458 1460 1462 1464 1466 1468 1469 1470 1471 1472 1473 1473 1473 1473 1473 1472 1473 1473 1471 1470 1468 1466 1463 1461 1459 1456 1453
1423 1428 1433 1437 1440 1443 1446 1449 1452 1454 1456 1459 1461 1463 1465 1467 1468 1470 1471 1472 1473 1473 1474 1474 1474 1474 1473 1471 1472 1471 1470 1468 1466 1464 1461 1459 1456 1453
1423 1427 1431 1435 1439 1442 1445 1448 1451 1453 1456 1459 1461 1463 1465 1467 1469 1470 1471 1472 1473 1474 1474 1475 1474 1474 1473 1473 1471 1470 1469 1468 1466 1464 1461 1459 1456 1453
1422 1426 1430 1434 1438 1441 1444 1447 1450 1453 1456 1459 1461 1463 1465 1467 1469 1470 1471 1473 1474 1474 1475 1475 1474 1474 1474 1474 1473 1471 1468 1468 1466 1463 1461 1459 1456 1453
1420 1425 1429 1433 1437 1440 1443 1446 1449 1452 1455 1458 1461 1463 1465 1467 1469 1470 1471 1472 1474 1475 1475 1475 1473 1472 1473 1473 1473 1472 1470 1466 1464 1463 1460 1458 1455 1452
1418 1423 1427 1431 1435 1439 1442 1446 1449 1452 1455 1458 1460 1463 1465 1467 1468 1470 1471 1473 1474 1474 1475 1474 1473 1474 1474 1474 1472 1471 1470 1467 1464 1461 1459 1457 1456 1452
1416 1421 1425 1430 1434 1438 1441 1445 1448 1451 1454 1457 1460 1462 1464 1466 1468 1470 1471 1472 1473 1474 1474 1474 1474 1474 1473 1473 1471 1470 1469 1467 1465 1462 1459 1455 1454 1451